"read_dt","SO2 (ppb)","flags","PMT voltage (V)","lamp voltage (V)","lamp intensity (Hz)","internal temp (C)","react chamber temp (C)","sample flow (l/min)","pres (mmHg)","SO2 bkg (ppb)","SO2 coefficient"
2013-09-13 00:00:00,1110E-4,5C000000,-0724,0943,11017,027.4,045.3,0.391,733.1,01.19,0.508
2013-09-13 00:01:00,9573E-5,5C000000,-0724,0943,11113,027.5,045.3,0.391,733.1,01.19,0.508
2013-09-13 00:02:00,1129E-4,5C000000,-0724,0944,11201,027.4,045.3,0.391,733.1,01.19,0.508
2013-09-13 00:03:00,9083E-5,5C000000,-0724,0944,11110,027.4,045.3,0.391,733.1,01.19,0.508
2013-09-13 00:04:00,8286E-5,5C000000,-0724,0943,11135,027.5,045.3,0.391,733.1,01.19,0.508
2013-09-13 00:05:00,1917E-4,5C000000,-0724,0944,11186,027.5,045.3,0.391,733.1,01.19,0.508
2013-09-13 00:06:00,1832E-4,5C000000,-0724,0944,11057,027.5,045.3,0.391,733.1,01.19,0.508
2013-09-13 00:07:00,8255E-5,5C000000,-0724,0943,11068,027.5,045.3,0.391,733.1,01.19,0.508
2013-09-13 00:08:00,1412E-4,5C000000,-0724,0943,11089,027.5,045.3,0.391,733.1,01.19,0.508
2013-09-13 00:09:00,1738E-4,5C000000,-0724,0943,11154,027.5,045.3,0.391,733.0,01.19,0.508
2013-09-13 00:10:00,1010E-4,5C000000,-0724,0943,11062,027.5,045.3,0.391,733.1,01.19,0.508
2013-09-13 00:11:00,1153E-4,5C000000,-0724,0943,11095,027.5,045.3,0.391,733.1,01.19,0.508
2013-09-13 00:12:00,1680E-4,5C000000,-0724,0943,11143,027.4,045.3,0.391,733.0,01.19,0.508
2013-09-13 00:13:00,1516E-4,5C000000,-0724,0943,11073,027.5,045.3,0.391,733.1,01.19,0.508
2013-09-13 00:14:00,1558E-4,5C000000,-0724,0944,11026,027.5,045.3,0.391,733.0,01.19,0.508
2013-09-13 00:15:00,1867E-4,5C000000,-0724,0943,11049,027.5,045.3,0.391,733.1,01.19,0.508
2013-09-13 00:16:00,-8775E-6,5C000000,-0724,0944,11072,027.5,045.3,0.391,733.1,01.19,0.508
2013-09-13 00:17:00,9264E-5,5C000000,-0724,0943,11004,027.4,045.3,0.391,733.0,01.19,0.508
2013-09-13 00:18:00,1399E-4,5C000000,-0724,0944,11088,027.5,045.3,0.391,733.1,01.19,0.508
2013-09-13 00:19:00,3275E-5,5C000000,-0724,0943,11107,027.5,045.3,0.391,733.1,01.19,0.508
2013-09-13 00:20:00,9815E-5,5C000000,-0724,0943,11025,027.4,045.4,0.391,733.0,01.19,0.508
2013-09-13 00:21:00,1397E-4,5C000000,-0724,0944,11027,027.5,045.3,0.391,733.0,01.19,0.508
2013-09-13 00:22:00,-1769E-6,5C000000,-0724,0943,11046,027.5,045.3,0.391,733.1,01.19,0.508
2013-09-13 00:23:00,1284E-4,5C000000,-0724,0943,11169,027.5,045.3,0.391,733.1,01.19,0.508
2013-09-13 00:24:00,1486E-4,5C000000,-0724,0944,11108,027.5,045.3,0.391,733.1,01.19,0.508
2013-09-13 00:25:00,1152E-4,5C000000,-0724,0944,11147,027.5,045.4,0.391,733.1,01.19,0.508
2013-09-13 00:26:00,1273E-4,5C000000,-0724,0943,10829,027.5,045.3,0.391,733.1,01.19,0.508
2013-09-13 00:27:00,7200E-5,5C000000,-0724,0945,11065,027.5,045.3,0.391,733.1,01.19,0.508
2013-09-13 00:28:00,1697E-4,5C000000,-0724,0943,10822,027.5,045.3,0.391,733.1,01.19,0.508
2013-09-13 00:29:00,1461E-4,5C000000,-0724,0943,11166,027.5,045.3,0.391,733.2,01.19,0.508
2013-09-13 00:30:00,1711E-4,5C000000,-0724,0943,11089,027.5,045.3,0.391,733.1,01.19,0.508
2013-09-13 00:31:00,1634E-4,5C000000,-0724,0944,11044,027.5,045.3,0.391,733.1,01.19,0.508
2013-09-13 00:32:00,1294E-4,5C000000,-0724,0943,11135,027.5,045.3,0.391,733.1,01.19,0.508
2013-09-13 00:33:00,9055E-5,5C000000,-0724,0943,11053,027.5,045.3,0.391,733.1,01.19,0.508
2013-09-13 00:34:00,1059E-4,5C000000,-0724,0943,11067,027.5,045.3,0.391,733.2,01.19,0.508
2013-09-13 00:35:00,1535E-4,5C000000,-0724,0944,11154,027.5,045.3,0.391,733.2,01.19,0.508
2013-09-13 00:36:00,1118E-4,5C000000,-0724,0944,11078,027.5,045.3,0.391,733.2,01.19,0.508
2013-09-13 00:37:00,6831E-5,5C000000,-0724,0943,11140,027.5,045.3,0.391,733.2,01.19,0.508
2013-09-13 00:38:00,1429E-4,5C000000,-0724,0943,11137,027.5,045.3,0.391,733.2,01.19,0.508
2013-09-13 00:39:00,1624E-4,5C000000,-0724,0944,11079,027.5,045.3,0.391,733.2,01.19,0.508
2013-09-13 00:40:00,7689E-5,5C000000,-0724,0944,11146,027.5,045.3,0.391,733.2,01.19,0.508
2013-09-13 00:41:00,9886E-5,5C000000,-0724,0943,11240,027.5,045.3,0.391,733.2,01.19,0.508
2013-09-13 00:42:00,7427E-5,5C000000,-0724,0943,11056,027.5,045.3,0.391,733.2,01.19,0.508
2013-09-13 00:43:00,1282E-4,5C000000,-0724,0943,10960,027.5,045.3,0.391,733.2,01.19,0.508
2013-09-13 00:44:00,1568E-4,5C000000,-0724,0944,11166,027.5,045.3,0.391,733.2,01.19,0.508
2013-09-13 00:45:00,1876E-4,5C000000,-0724,0943,11114,027.5,045.4,0.391,733.2,01.19,0.508
2013-09-13 00:46:00,1120E-4,5C000000,-0724,0943,11088,027.5,045.4,0.391,733.1,01.19,0.508
2013-09-13 00:47:00,1340E-4,5C000000,-0724,0943,10965,027.5,045.4,0.391,733.2,01.19,0.508
2013-09-13 00:48:00,1412E-4,5C000000,-0724,0943,11019,027.5,045.3,0.391,733.2,01.19,0.508
2013-09-13 00:49:00,1388E-4,5C000000,-0724,0943,11187,027.5,045.3,0.391,733.2,01.19,0.508
2013-09-13 00:50:00,8712E-5,5C000000,-0724,0944,11105,027.5,045.3,0.391,733.3,01.19,0.508
2013-09-13 00:51:00,1623E-4,5C000000,-0724,0943,11244,027.5,045.3,0.391,733.3,01.19,0.508
2013-09-13 00:52:00,4293E-5,5C000000,-0724,0943,10939,027.5,045.3,0.391,733.3,01.19,0.508
2013-09-13 00:53:00,1417E-4,5C000000,-0724,0943,11092,027.5,045.3,0.391,733.3,01.19,0.508
2013-09-13 00:54:00,9070E-5,5C000000,-0724,0945,11189,027.5,045.3,0.391,733.3,01.19,0.508
2013-09-13 00:55:00,1317E-4,5C000000,-0724,0945,11094,027.5,045.3,0.391,733.3,01.19,0.508
2013-09-13 00:56:00,1095E-4,5C000000,-0724,0943,11053,027.5,045.4,0.391,733.3,01.19,0.508
2013-09-13 00:57:00,1584E-4,5C000000,-0724,0944,11017,027.6,045.4,0.391,733.3,01.19,0.508
2013-09-13 00:58:00,1037E-4,5C000000,-0724,0943,11092,027.5,045.4,0.391,733.2,01.19,0.508
2013-09-13 00:59:00,1263E-4,5C000000,-0724,0943,11177,027.5,045.4,0.391,733.2,01.19,0.508
2013-09-13 01:00:00,1592E-4,5C000000,-0724,0942,11019,027.5,045.3,0.391,733.2,01.19,0.508
2013-09-13 01:01:00,1110E-4,5C000000,-0724,0943,11105,027.5,045.3,0.391,733.3,01.19,0.508
2013-09-13 01:02:00,7753E-5,5C000000,-0724,0943,11142,027.5,045.3,0.391,733.2,01.19,0.508
2013-09-13 01:03:00,1450E-4,5C000000,-0724,0944,11133,027.6,045.3,0.391,733.3,01.19,0.508
2013-09-13 01:04:00,8342E-5,5C000000,-0724,0943,11173,027.6,045.3,0.391,733.3,01.19,0.508
2013-09-13 01:05:00,8166E-5,5C000000,-0724,0944,11181,027.6,045.3,0.391,733.3,01.19,0.508
2013-09-13 01:06:00,8554E-5,5C000000,-0724,0944,11100,027.6,045.3,0.391,733.2,01.19,0.508
2013-09-13 01:07:00,1163E-4,5C000000,-0724,0944,11227,027.6,045.3,0.391,733.2,01.19,0.508
2013-09-13 01:08:00,1346E-4,5C000000,-0724,0943,10993,027.6,045.3,0.391,733.2,01.19,0.508
2013-09-13 01:09:00,1800E-4,5C000000,-0724,0944,11168,027.6,045.3,0.391,733.2,01.19,0.508
2013-09-13 01:10:00,1431E-4,5C000000,-0724,0944,11152,027.6,045.3,0.391,733.3,01.19,0.508
2013-09-13 01:11:00,1518E-4,5C000000,-0724,0943,11055,027.6,045.4,0.391,733.2,01.19,0.508
2013-09-13 01:12:00,2297E-5,5C000000,-0724,0944,10978,027.5,045.3,0.391,733.2,01.19,0.508
2013-09-13 01:13:00,9492E-5,5C000000,-0724,0944,10976,027.6,045.3,0.391,733.2,01.19,0.508
2013-09-13 01:14:00,1276E-4,5C000000,-0724,0944,11057,027.5,045.4,0.391,733.2,01.19,0.508
2013-09-13 01:15:00,9527E-5,5C000000,-0724,0944,11035,027.6,045.3,0.391,733.2,01.19,0.508
2013-09-13 01:16:00,1395E-4,5C000000,-0724,0944,11025,027.5,045.3,0.391,733.2,01.19,0.508
2013-09-13 01:17:00,3681E-5,5C000000,-0724,0943,11140,027.6,045.3,0.391,733.2,01.19,0.508
2013-09-13 01:18:00,2099E-4,5C000000,-0724,0945,11011,027.6,045.3,0.391,733.2,01.19,0.508
2013-09-13 01:19:00,2063E-4,5C000000,-0724,0943,11098,027.6,045.3,0.391,733.2,01.19,0.508
2013-09-13 01:20:00,1013E-4,5C000000,-0724,0944,11199,027.6,045.3,0.391,733.3,01.19,0.508
2013-09-13 01:21:00,8302E-5,5C000000,-0724,0943,10908,027.6,045.4,0.391,733.2,01.19,0.508
2013-09-13 01:22:00,1117E-4,5C000000,-0724,0944,10997,027.6,045.3,0.391,733.3,01.19,0.508
2013-09-13 01:23:00,2036E-4,5C000000,-0724,0943,10967,027.6,045.3,0.391,733.2,01.19,0.508
2013-09-13 01:24:00,1328E-4,5C000000,-0724,0943,11141,027.6,045.3,0.391,733.3,01.19,0.508
2013-09-13 01:25:00,9051E-5,5C000000,-0724,0944,11074,027.6,045.3,0.391,733.3,01.19,0.508
2013-09-13 01:26:00,1679E-4,5C000000,-0724,0943,11118,027.6,045.3,0.391,733.3,01.19,0.508
2013-09-13 01:27:00,1295E-4,5C000000,-0724,0944,11145,027.6,045.4,0.391,733.2,01.19,0.508
2013-09-13 01:28:00,1090E-4,5C000000,-0724,0943,11160,027.5,045.3,0.391,733.2,01.19,0.508
2013-09-13 01:29:00,9639E-5,5C000000,-0724,0944,11046,027.6,045.3,0.391,733.3,01.19,0.508
2013-09-13 01:30:00,1304E-4,5C000000,-0724,0944,11096,027.6,045.3,0.391,733.2,01.19,0.508
2013-09-13 01:31:00,9916E-5,5C000000,-0724,0943,11126,027.6,045.3,0.391,733.3,01.19,0.508
2013-09-13 01:32:00,1079E-4,5C000000,-0724,0943,11189,027.6,045.3,0.391,733.3,01.19,0.508
2013-09-13 01:33:00,1205E-4,5C000000,-0724,0943,11196,027.6,045.3,0.391,733.2,01.19,0.508
2013-09-13 01:34:00,2048E-4,5C000000,-0724,0943,11022,027.5,045.3,0.391,733.3,01.19,0.508
2013-09-13 01:35:00,8356E-5,5C000000,-0724,0944,11134,027.5,045.3,0.391,733.3,01.19,0.508
2013-09-13 01:36:00,9069E-5,5C000000,-0724,0943,11207,027.5,045.4,0.391,733.3,01.19,0.508
2013-09-13 01:37:00,1536E-4,5C000000,-0724,0944,11168,027.6,045.4,0.391,733.3,01.19,0.508
2013-09-13 01:38:00,2372E-4,5C000000,-0724,0944,11107,027.6,045.4,0.391,733.3,01.19,0.508
2013-09-13 01:39:00,1142E-4,5C000000,-0724,0944,10933,027.5,045.3,0.391,733.3,01.19,0.508
2013-09-13 01:40:00,6443E-5,5C000000,-0724,0945,11148,027.5,045.4,0.391,733.3,01.19,0.508
2013-09-13 01:41:00,8692E-5,5C000000,-0724,0943,11011,027.5,045.3,0.391,733.3,01.19,0.508
2013-09-13 01:42:00,1049E-4,5C000000,-0724,0944,11053,027.5,045.4,0.391,733.3,01.19,0.508
2013-09-13 01:43:00,2156E-4,5C000000,-0724,0945,11219,027.5,045.3,0.391,733.3,01.19,0.508
2013-09-13 01:44:00,4329E-5,5C000000,-0724,0943,11127,027.6,045.3,0.391,733.3,01.19,0.508
2013-09-13 01:45:00,1153E-4,5C000000,-0724,0944,11192,027.6,045.4,0.391,733.2,01.19,0.508
2013-09-13 01:46:00,1344E-4,5C000000,-0724,0944,11077,027.5,045.3,0.391,733.3,01.19,0.508
2013-09-13 01:47:00,1416E-4,5C000000,-0724,0944,11102,027.5,045.4,0.391,733.3,01.19,0.508
2013-09-13 01:48:00,1217E-4,5C000000,-0724,0944,11066,027.5,045.3,0.391,733.3,01.19,0.508
2013-09-13 01:49:00,1861E-4,5C000000,-0724,0945,11069,027.6,045.3,0.391,733.3,01.19,0.508
2013-09-13 01:50:00,9624E-5,5C000000,-0724,0944,11074,027.6,045.3,0.391,733.3,01.19,0.508
2013-09-13 01:51:00,4781E-5,5C000000,-0724,0944,10911,027.6,045.3,0.391,733.3,01.19,0.508
2013-09-13 01:52:00,1193E-4,5C000000,-0724,0944,11116,027.6,045.3,0.391,733.3,01.19,0.508
2013-09-13 01:53:00,5555E-5,5C000000,-0724,0944,11068,027.6,045.3,0.391,733.3,01.19,0.508
2013-09-13 01:54:00,1612E-4,5C000000,-0724,0944,11171,027.7,045.4,0.391,733.3,01.19,0.508
2013-09-13 01:55:00,8426E-5,5C000000,-0724,0944,11156,027.7,045.4,0.391,733.2,01.19,0.508
2013-09-13 01:56:00,6468E-5,5C000000,-0724,0943,11115,027.7,045.4,0.391,733.3,01.19,0.508
2013-09-13 01:57:00,9744E-5,5C000000,-0724,0944,11067,027.8,045.4,0.391,733.3,01.19,0.508
2013-09-13 01:58:00,8642E-5,5C000000,-0724,0943,11085,027.7,045.4,0.391,733.3,01.19,0.508
2013-09-13 01:59:00,1323E-4,5C000000,-0724,0944,11123,027.8,045.4,0.391,733.3,01.19,0.508
2013-09-13 02:00:00,2285E-4,5C000000,-0724,0944,11033,027.8,045.4,0.391,733.4,01.19,0.508
2013-09-13 02:01:00,5439E-5,5C000000,-0724,0943,11031,027.7,045.4,0.390,733.4,01.19,0.508
2013-09-13 02:02:00,1654E-4,5C000000,-0724,0944,11031,027.7,045.3,0.391,733.3,01.19,0.508
2013-09-13 02:03:00,7125E-5,5C000000,-0724,0944,11081,027.7,045.3,0.391,733.4,01.19,0.508
2013-09-13 02:04:00,1932E-4,5C000000,-0724,0944,10999,027.7,045.3,0.391,733.4,01.19,0.508
2013-09-13 02:05:00,1119E-4,5C000000,-0724,0944,11155,027.6,045.4,0.391,733.4,01.19,0.508
2013-09-13 02:06:00,1753E-4,5C000000,-0724,0943,11157,027.6,045.4,0.391,733.4,01.19,0.508
2013-09-13 02:07:00,9106E-5,5C000000,-0724,0943,11078,027.6,045.4,0.391,733.4,01.19,0.508
2013-09-13 02:08:00,1785E-4,5C000000,-0724,0944,10993,027.6,045.3,0.391,733.4,01.19,0.508
2013-09-13 02:09:00,1495E-4,5C000000,-0724,0944,11177,027.6,045.3,0.391,733.4,01.19,0.508
2013-09-13 02:10:00,2227E-4,5C000000,-0724,0944,11038,027.6,045.3,0.391,733.4,01.19,0.508
2013-09-13 02:11:00,1466E-4,5C000000,-0724,0943,10923,027.6,045.3,0.391,733.3,01.19,0.508
2013-09-13 02:12:00,2520E-4,5C000000,-0724,0943,11172,027.6,045.4,0.391,733.4,01.19,0.508
2013-09-13 02:13:00,-1295E-5,5C000000,-0724,0943,11000,027.6,045.3,0.391,733.3,01.19,0.508
2013-09-13 02:14:00,1546E-4,5C000000,-0724,0944,11063,027.7,045.3,0.391,733.3,01.19,0.508
2013-09-13 02:15:00,1243E-4,5C000000,-0724,0944,11178,027.6,045.3,0.391,733.4,01.19,0.508
2013-09-13 02:16:00,1039E-4,5C000000,-0724,0943,11117,027.7,045.3,0.391,733.4,01.19,0.508
2013-09-13 02:17:00,1779E-4,5C000000,-0724,0944,11082,027.7,045.3,0.390,733.4,01.19,0.508
2013-09-13 02:18:00,1019E-4,5C000000,-0724,0944,10984,027.7,045.4,0.391,733.4,01.19,0.508
2013-09-13 02:19:00,1542E-4,5C000000,-0724,0944,11136,027.6,045.4,0.391,733.4,01.19,0.508
2013-09-13 02:20:00,1173E-4,5C000000,-0724,0943,11074,027.6,045.4,0.391,733.4,01.19,0.508
2013-09-13 02:21:00,1714E-4,5C000000,-0724,0944,11009,027.6,045.3,0.391,733.4,01.19,0.508
2013-09-13 02:22:00,6336E-5,5C000000,-0724,0943,11113,027.6,045.3,0.391,733.4,01.19,0.508
2013-09-13 02:23:00,1246E-4,5C000000,-0724,0943,11123,027.6,045.3,0.391,733.5,01.19,0.508
2013-09-13 02:24:00,1169E-4,5C000000,-0724,0944,11007,027.6,045.4,0.391,733.4,01.19,0.508
2013-09-13 02:25:00,1074E-5,5C000000,-0724,0943,11150,027.6,045.3,0.391,733.4,01.19,0.508
2013-09-13 02:26:00,1283E-4,5C000000,-0724,0944,11118,027.6,045.3,0.391,733.4,01.19,0.508
2013-09-13 02:27:00,1335E-4,5C000000,-0724,0943,10986,027.6,045.3,0.391,733.4,01.19,0.508
2013-09-13 02:28:00,8450E-5,5C000000,-0724,0943,11117,027.6,045.3,0.391,733.4,01.19,0.508
2013-09-13 02:29:00,2090E-4,5C000000,-0724,0943,10912,027.6,045.3,0.391,733.4,01.19,0.508
2013-09-13 02:30:00,1534E-4,5C000000,-0724,0944,11162,027.6,045.4,0.391,733.4,01.19,0.508
2013-09-13 02:31:00,2096E-4,5C000000,-0724,0943,11109,027.6,045.3,0.391,733.5,01.19,0.508
2013-09-13 02:32:00,1388E-4,5C000000,-0724,0943,11128,027.6,045.4,0.391,733.5,01.19,0.508
2013-09-13 02:33:00,7992E-5,5C000000,-0724,0944,11118,027.6,045.4,0.391,733.4,01.19,0.508
2013-09-13 02:34:00,1622E-4,5C000000,-0724,0943,11181,027.7,045.3,0.391,733.4,01.19,0.508
2013-09-13 02:35:00,1381E-4,5C000000,-0724,0944,11155,027.6,045.4,0.391,733.5,01.19,0.508
2013-09-13 02:36:00,1329E-4,5C000000,-0724,0943,11134,027.7,045.3,0.391,733.5,01.19,0.508
2013-09-13 02:37:00,2118E-4,5C000000,-0724,0943,10959,027.7,045.3,0.391,733.5,01.19,0.508
2013-09-13 02:38:00,3495E-5,5C000000,-0724,0944,11071,027.7,045.4,0.391,733.5,01.19,0.508
2013-09-13 02:39:00,2005E-4,5C000000,-0724,0943,11028,027.6,045.3,0.391,733.5,01.19,0.508
2013-09-13 02:40:00,1618E-4,5C000000,-0724,0944,11148,027.7,045.4,0.391,733.5,01.19,0.508
2013-09-13 02:41:00,1473E-4,5C000000,-0724,0944,11108,027.6,045.3,0.391,733.5,01.19,0.508
2013-09-13 02:42:00,4314E-5,5C000000,-0724,0944,11196,027.6,045.4,0.391,733.5,01.19,0.508
2013-09-13 02:43:00,1309E-4,5C000000,-0724,0943,11111,027.6,045.3,0.391,733.4,01.19,0.508
2013-09-13 02:44:00,1469E-4,5C000000,-0724,0944,10994,027.6,045.3,0.391,733.5,01.19,0.508
2013-09-13 02:45:00,4575E-5,5C000000,-0724,0943,11046,027.6,045.3,0.391,733.5,01.19,0.508
2013-09-13 02:46:00,1877E-4,5C000000,-0724,0944,11209,027.6,045.3,0.391,733.5,01.19,0.508
2013-09-13 02:47:00,6381E-5,5C000000,-0724,0943,11055,027.6,045.3,0.391,733.5,01.19,0.508
2013-09-13 02:48:00,7527E-5,5C000000,-0724,0943,11053,027.6,045.3,0.391,733.5,01.19,0.508
2013-09-13 02:49:00,7596E-5,5C000000,-0724,0944,11151,027.6,045.4,0.391,733.5,01.19,0.508
2013-09-13 02:50:00,8726E-5,5C000000,-0724,0944,11201,027.6,045.4,0.391,733.4,01.19,0.508
2013-09-13 02:51:00,1225E-4,5C000000,-0724,0944,11160,027.6,045.4,0.391,733.5,01.19,0.508
2013-09-13 02:52:00,8323E-5,5C000000,-0724,0942,11031,027.7,045.3,0.391,733.5,01.19,0.508
2013-09-13 02:53:00,1424E-4,5C000000,-0724,0944,10891,027.7,045.3,0.391,733.4,01.19,0.508
2013-09-13 02:54:00,8880E-5,5C000000,-0724,0944,11047,027.6,045.3,0.391,733.4,01.19,0.508
2013-09-13 02:55:00,6043E-5,5C000000,-0724,0944,11130,027.7,045.3,0.391,733.4,01.19,0.508
2013-09-13 02:56:00,1164E-4,5C000000,-0724,0945,11169,027.7,045.3,0.391,733.5,01.19,0.508
2013-09-13 02:57:00,1532E-4,5C000000,-0724,0944,11164,027.7,045.3,0.391,733.4,01.19,0.508
2013-09-13 02:58:00,7986E-5,5C000000,-0724,0944,11107,027.7,045.3,0.391,733.4,01.19,0.508
2013-09-13 02:59:00,1383E-4,5C000000,-0724,0943,11115,027.8,045.4,0.391,733.4,01.19,0.508
2013-09-13 03:00:00,4384E-5,5C000000,-0724,0944,10948,027.7,045.4,0.391,733.5,01.19,0.508
2013-09-13 03:01:00,2048E-5,5C000000,-0724,0945,11093,027.7,045.3,0.390,733.5,01.19,0.508
2013-09-13 03:02:00,1592E-4,5C000000,-0724,0943,11077,027.7,045.3,0.391,733.5,01.19,0.508
2013-09-13 03:03:00,1124E-4,5C000000,-0724,0944,11107,027.7,045.3,0.391,733.5,01.19,0.508
2013-09-13 03:04:00,1448E-4,5C000000,-0724,0944,11191,027.7,045.4,0.391,733.5,01.19,0.508
2013-09-13 03:05:00,1564E-4,5C000000,-0724,0944,11079,027.7,045.4,0.391,733.5,01.19,0.508
2013-09-13 03:06:00,1717E-4,5C000000,-0724,0944,11040,027.7,045.3,0.390,733.4,01.19,0.508
2013-09-13 03:07:00,9809E-5,5C000000,-0724,0944,11163,027.6,045.3,0.391,733.5,01.19,0.508
2013-09-13 03:08:00,1080E-4,5C000000,-0724,0943,11122,027.6,045.3,0.391,733.4,01.19,0.508
2013-09-13 03:09:00,1593E-4,5C000000,-0724,0944,11148,027.6,045.3,0.391,733.5,01.19,0.508
2013-09-13 03:10:00,6050E-5,5C000000,-0724,0944,11133,027.6,045.3,0.391,733.5,01.19,0.508
2013-09-13 03:11:00,1659E-4,5C000000,-0724,0944,11078,027.6,045.4,0.391,733.5,01.19,0.508
2013-09-13 03:12:00,1120E-4,5C000000,-0724,0944,11173,027.7,045.4,0.391,733.5,01.19,0.508
2013-09-13 03:13:00,9693E-5,5C000000,-0724,0943,11077,027.6,045.3,0.391,733.5,01.19,0.508
2013-09-13 03:14:00,1243E-4,5C000000,-0724,0944,11060,027.6,045.3,0.391,733.5,01.19,0.508
2013-09-13 03:15:00,1278E-4,5C000000,-0724,0943,11220,027.6,045.3,0.391,733.5,01.19,0.508
2013-09-13 03:16:00,1068E-4,5C000000,-0724,0944,11054,027.6,045.3,0.391,733.5,01.19,0.508
2013-09-13 03:17:00,1806E-4,5C000000,-0724,0943,11031,027.7,045.3,0.391,733.6,01.19,0.508
2013-09-13 03:18:00,1339E-4,5C000000,-0724,0943,11119,027.6,045.3,0.391,733.5,01.19,0.508
2013-09-13 03:19:00,6457E-5,5C000000,-0724,0943,11096,027.7,045.4,0.391,733.5,01.19,0.508
2013-09-13 03:20:00,7125E-5,5C000000,-0724,0943,11136,027.7,045.4,0.391,733.5,01.19,0.508
2013-09-13 03:21:00,7133E-5,5C000000,-0724,0943,11164,027.7,045.4,0.391,733.5,01.19,0.508
2013-09-13 03:22:00,1484E-4,5C000000,-0724,0943,11086,027.7,045.4,0.391,733.5,01.19,0.508
2013-09-13 03:23:00,1020E-4,5C000000,-0724,0943,11091,027.7,045.3,0.391,733.6,01.19,0.508
2013-09-13 03:24:00,3318E-5,5C000000,-0724,0943,11099,027.7,045.3,0.391,733.5,01.19,0.508
2013-09-13 03:25:00,9835E-5,5C000000,-0724,0943,11025,027.7,045.3,0.391,733.6,01.19,0.508
2013-09-13 03:26:00,1058E-4,5C000000,-0724,0943,11047,027.7,045.4,0.391,733.6,01.19,0.508
2013-09-13 03:27:00,1327E-4,5C000000,-0724,0943,10893,027.7,045.4,0.391,733.6,01.19,0.508
2013-09-13 03:28:00,1232E-4,5C000000,-0724,0944,11232,027.7,045.3,0.391,733.6,01.19,0.508
2013-09-13 03:29:00,1319E-4,5C000000,-0724,0943,11029,027.7,045.3,0.391,733.6,01.19,0.508
2013-09-13 03:30:00,1195E-4,5C000000,-0724,0943,11081,027.7,045.3,0.391,733.6,01.19,0.508
2013-09-13 03:31:00,8677E-5,5C000000,-0724,0943,11042,027.7,045.4,0.391,733.6,01.19,0.508
2013-09-13 03:32:00,2088E-4,5C000000,-0724,0943,11102,027.7,045.4,0.391,733.6,01.19,0.508
2013-09-13 03:33:00,2471E-5,5C000000,-0724,0944,11135,027.7,045.4,0.391,733.6,01.19,0.508
2013-09-13 03:34:00,9607E-5,5C000000,-0724,0943,11016,027.7,045.3,0.391,733.6,01.19,0.508
2013-09-13 03:35:00,5668E-5,5C000000,-0724,0944,11058,027.7,045.4,0.391,733.6,01.19,0.508
2013-09-13 03:36:00,1368E-4,5C000000,-0724,0943,11108,027.7,045.4,0.391,733.7,01.19,0.508
2013-09-13 03:37:00,2266E-4,5C000000,-0724,0944,11038,027.7,045.3,0.391,733.6,01.19,0.508
2013-09-13 03:38:00,1553E-4,5C000000,-0724,0943,11097,027.7,045.4,0.391,733.6,01.19,0.508
2013-09-13 03:39:00,7927E-5,5C000000,-0724,0944,11202,027.7,045.4,0.391,733.7,01.19,0.508
2013-09-13 03:40:00,1682E-4,5C000000,-0724,0943,11259,027.7,045.3,0.391,733.7,01.19,0.508
2013-09-13 03:41:00,1829E-4,5C000000,-0724,0944,11187,027.6,045.4,0.391,733.7,01.19,0.508
2013-09-13 03:42:00,1289E-4,5C000000,-0724,0944,11050,027.7,045.3,0.391,733.7,01.19,0.508
2013-09-13 03:43:00,1696E-4,5C000000,-0724,0943,11033,027.7,045.3,0.391,733.7,01.19,0.508
2013-09-13 03:44:00,1368E-4,5C000000,-0724,0944,10976,027.7,045.3,0.391,733.7,01.19,0.508
2013-09-13 03:45:00,2236E-4,5C000000,-0724,0943,11183,027.7,045.3,0.391,733.7,01.19,0.508
2013-09-13 03:46:00,1315E-4,5C000000,-0724,0944,11064,027.7,045.4,0.391,733.7,01.19,0.508
2013-09-13 03:47:00,1483E-4,5C000000,-0724,0944,11004,027.7,045.4,0.391,733.7,01.19,0.508
2013-09-13 03:48:00,1275E-4,5C000000,-0724,0943,11084,027.7,045.4,0.391,733.7,01.19,0.508
2013-09-13 03:49:00,1144E-4,5C000000,-0724,0942,11004,027.8,045.3,0.391,733.7,01.19,0.508
2013-09-13 03:50:00,1077E-4,5C000000,-0724,0943,11176,027.7,045.3,0.391,733.7,01.19,0.508
2013-09-13 03:51:00,1080E-4,5C000000,-0724,0943,10967,027.7,045.3,0.391,733.7,01.19,0.508
2013-09-13 03:52:00,1164E-4,5C000000,-0724,0943,11173,027.7,045.3,0.391,733.7,01.19,0.508
2013-09-13 03:53:00,8714E-5,5C000000,-0724,0943,11142,027.8,045.3,0.391,733.8,01.19,0.508
2013-09-13 03:54:00,1679E-4,5C000000,-0724,0943,10979,027.7,045.3,0.391,733.8,01.19,0.508
2013-09-13 03:55:00,1553E-4,5C000000,-0724,0943,10983,027.7,045.4,0.391,733.8,01.19,0.508
2013-09-13 03:56:00,9384E-5,5C000000,-0724,0944,10978,027.7,045.3,0.391,733.8,01.19,0.508
2013-09-13 03:57:00,1853E-4,5C000000,-0724,0944,11187,027.7,045.4,0.391,733.8,01.19,0.508
2013-09-13 03:58:00,1476E-4,5C000000,-0724,0943,11010,027.7,045.4,0.391,733.8,01.19,0.508
2013-09-13 03:59:00,1781E-4,5C000000,-0724,0943,11079,027.7,045.4,0.391,733.8,01.19,0.508
2013-09-13 04:00:00,1012E-4,5C000000,-0724,0944,11102,027.7,045.3,0.391,733.8,01.19,0.508
2013-09-13 04:01:00,1247E-4,5C000000,-0724,0944,11145,027.7,045.3,0.391,733.8,01.19,0.508
2013-09-13 04:02:00,8788E-5,5C000000,-0724,0944,11162,027.7,045.3,0.391,733.8,01.19,0.508
2013-09-13 04:03:00,2278E-4,5C000000,-0724,0944,11151,027.7,045.3,0.391,733.8,01.19,0.508
2013-09-13 04:04:00,2859E-5,5C000000,-0724,0943,11034,027.7,045.4,0.391,733.8,01.19,0.508
2013-09-13 04:05:00,1610E-4,5C000000,-0724,0944,11182,027.7,045.4,0.391,733.8,01.19,0.508
2013-09-13 04:06:00,1818E-4,5C000000,-0724,0944,10995,027.7,045.4,0.391,733.8,01.19,0.508
2013-09-13 04:07:00,1434E-4,5C000000,-0724,0944,11166,027.7,045.4,0.391,733.8,01.19,0.508
2013-09-13 04:08:00,1975E-4,5C000000,-0724,0944,11109,027.8,045.3,0.391,733.8,01.19,0.508
2013-09-13 04:09:00,6984E-5,5C000000,-0724,0943,11075,027.8,045.3,0.391,733.8,01.19,0.508
2013-09-13 04:10:00,1492E-4,5C000000,-0724,0944,11215,027.8,045.3,0.391,733.8,01.19,0.508
2013-09-13 04:11:00,1355E-4,5C000000,-0724,0944,11068,027.8,045.3,0.391,733.8,01.19,0.508
2013-09-13 04:12:00,1721E-4,5C000000,-0724,0943,11147,027.8,045.4,0.391,733.8,01.19,0.508
2013-09-13 04:13:00,1234E-4,5C000000,-0724,0944,11080,027.8,045.3,0.391,733.8,01.19,0.508
2013-09-13 04:14:00,1279E-4,5C000000,-0724,0944,11110,027.8,045.3,0.390,733.8,01.19,0.508
2013-09-13 04:15:00,6172E-5,5C000000,-0724,0944,11100,027.8,045.3,0.391,733.8,01.19,0.508
2013-09-13 04:16:00,1528E-4,5C000000,-0724,0944,10938,027.8,045.3,0.391,733.9,01.19,0.508
2013-09-13 04:17:00,1078E-4,5C000000,-0724,0942,11195,027.7,045.3,0.391,733.9,01.19,0.508
2013-09-13 04:18:00,1413E-4,5C000000,-0724,0944,11078,027.8,045.4,0.391,733.9,01.19,0.508
2013-09-13 04:19:00,1605E-4,5C000000,-0724,0943,11075,027.7,045.4,0.391,733.9,01.19,0.508
2013-09-13 04:20:00,-1067E-5,5C000000,-0724,0944,11056,027.7,045.4,0.391,733.9,01.19,0.508